Showing default

GGSE 4, 2828

Orbit data source: Space-Track

GGSE 4, 2828 is an American payload satellite in LEO that was launched on Wed, 31 May 1967 UTC via a THOR SLV-2 AGENA D launch vehicle from the Air Force Western Test Range (AFWTR). Payload-class satellites include a variety of spacecraft equipped with specific instruments for various scientific and technological missions. These include communications satellites like Starlink; space stations such as the ISS; scientific satellites like the Hubble; Earth observation satellites from companies like Planet Labs, Umbra, and HawkEye 360; GPS; miniature CubeSats for education and research; and military/defense satellites.

Loading next visibility...
Identifier
2828, 1967-053C
Orbit
LEO
Country
Flag of USUS
Related business
Manufacturer
NRL
Mission
Spacecraft
Bus & Motor
NRL MULTI, Unknown motor
Mass
85 kg wet, 85 kg dry
Launch date (UTC)
1967-05-31 (59 years ago)
Launch vehicle
THOR SLV-2 AGENA D
Launch site
Air Force Western Test Range (AFWTR)
Object type
Payload
Rocket body
Debris
Shape & HBR
Unknown
Radar Cross Section
Medium (>0.1 m² and <1 m²)

Expand to show TLE details & history
Last TLE update: 13 hours ago

TLE from 13 hours ago
0 GGSE 4
1  2828U 67053C   26163.86480009  .00000018  00000-0  50367-4 0  9998
2  2828  69.9716  72.2184 0008038 193.8325 166.2563 13.98086881  7552
Epoch: 2026-06-12T20:45Z
TLE epoch observation values (Epoch: 2026-06-12T20:45:18.727Z)
Latitude
-0°
Longitude
-140.29775°
Altitude
908.424 km
Speed
7.395 km/s
True Right ascension
04h 48m 52s
True Declination
0° 00' 00"
Sunlit
Object was in daylight at epoch
Visualization orbit readout
Latitude
Unknown
Longitude
Unknown
Altitude
Unknown
Speed
Unknown
Apparent Right ascension
Unknown
Apparent Declination
Unknown
Sunlit
N/A
Visualization observer readout
Local Sidereal Time
20:00:38
Azimuth
Unknown
Elevation
Unknown
Doppler factor
Unknown
Orbital elements
Apogee altitude
904.32 km
Perigee altitude
892.623 km
Semi-major axis
7,276.609 km
Eccentricity
0.0008
Inclination
69.9716°
RAAN
72.2184°
Arg. of periapsis
193.8325°
True anomaly
166.27816°
Mean anomaly
166.2563°
Eccentric anomaly
166.26723°
Mean motion
3.49663 °/min
Orbital period
102.96 mins
BSTAR
0.000050367
Loading maneuver chart data...
Computing Atmospheric mass density...
Loading historical data...
Loading historical data...
Loading historical data...
Loading historical data...
Loading historical data...
Loading historical data...
Loading historical data...

Documentation

Showing up to 5 results
|